CFE9760 EGLC-EGTE

Flight info

Callsign CFE9760
Flight time N/A
Altitude 23000
Route SOQQA M87 EKNIV M91 LYD/N0418F240 M189 WAFFU/N0401F220 Y8 SAM L620 GIBSO
Aircraft E190/M-SDE3GILORVW/S

Departure

Time 2026-05-01 12:17
Airport London City Airport (EGLC)

Arrival

Time N/A
Airport Exeter International Airport (EGTE)
Time Latitude Longitude Altitude Speed Heading
2026-05-01 10:39 51.50445 0.04800 29 ft 0 kts 309°
2026-05-01 10:40 51.50438 0.04816 26 ft 9 kts 308°
2026-05-01 10:40 51.50438 0.04813 29 ft 0 kts 308°
2026-05-01 10:58 51.50446 0.04799 29 ft 0 kts 308°
2026-05-01 10:59 51.50399 0.05364 29 ft 0 kts 182°
2026-05-01 11:58 51.50438 0.05388 28 ft 4 kts 247°
2026-05-01 11:59 51.50442 0.05415 28 ft 1 kts 273°
2026-05-01 11:59 51.50442 0.05420 28 ft 0 kts 273°
2026-05-01 12:12 51.50442 0.05419 28 ft 1 kts 273°
2026-05-01 12:12 51.50443 0.05398 28 ft 3 kts 273°
2026-05-01 12:13 51.50444 0.05348 28 ft 6 kts 273°
2026-05-01 12:13 51.50446 0.05272 28 ft 8 kts 271°
2026-05-01 12:13 51.50449 0.05172 28 ft 10 kts 272°
2026-05-01 12:13 51.50460 0.05054 28 ft 12 kts 278°
2026-05-01 12:14 51.50465 0.04915 28 ft 13 kts 273°
2026-05-01 12:14 51.50470 0.04758 28 ft 15 kts 274°
2026-05-01 12:14 51.50477 0.04580 28 ft 17 kts 273°
2026-05-01 12:14 51.50498 0.04455 28 ft 5 kts 318°
2026-05-01 12:15 51.50534 0.04453 28 ft 6 kts 24°
2026-05-01 12:15 51.50550 0.04520 28 ft 7 kts 95°
2026-05-01 12:15 51.50551 0.04590 28 ft 0 kts 93°
2026-05-01 12:16 51.50550 0.04609 28 ft 6 kts 91°
2026-05-01 12:16 51.50542 0.05000 29 ft 72 kts 93°
2026-05-01 12:17 51.50502 0.06190 48 ft 136 kts 92°
2026-05-01 12:17 51.50474 0.07796 672 ft 149 kts 92°
2026-05-01 12:17 51.50524 0.09555 1369 ft 168 kts 89°
2026-05-01 12:17 51.50590 0.11326 2679 ft 139 kts 93°
2026-05-01 12:18 51.50634 0.12735 3088 ft 141 kts 94°
2026-05-01 12:18 51.50718 0.14437 2997 ft 160 kts 86°
2026-05-01 12:18 51.50958 0.16268 2993 ft 177 kts 79°
2026-05-01 12:18 51.51317 0.18190 2934 ft 181 kts 77°
2026-05-01 12:19 51.51722 0.20153 2965 ft 190 kts 75°